Location: Keppel Henge
(44.7900°N, 80.9447°W)
Time: 00:49:38
(UTC-05:00)

CUTE-I - Visible Passes

Search period start: 22 November 2017 00:00
Search period end: 02 December 2017 00:00
Orbit: 812 x 824 km, 98.7° (Epoch: 21 November)

Date Brightness Start Highest point End Pass type
(mag) Time Alt. Az. Time Alt. Az. Time Alt. Az.
22 Nov ? 06:30:11 10° NNE 06:35:26 51° E 06:40:38 10° S visible
22 Nov ? 17:53:45 10° SSE 17:59:08 84° WSW 18:04:34 10° NNW visible
22 Nov ? 19:38:20 10° WSW 19:39:58 11° W 19:41:37 10° WNW visible
23 Nov ? 06:09:10 10° NNE 06:14:02 34° E 06:18:50 10° SSE visible
23 Nov ? 17:32:34 10° SSE 17:37:53 65° ENE 17:43:13 10° N visible
23 Nov ? 19:14:47 10° SW 19:18:23 18° W 19:22:00 10° NW visible
24 Nov ? 05:48:25 10° NE 05:52:34 22° E 05:56:39 10° SE visible
24 Nov ? 18:52:21 10° SSW 18:56:53 27° W 19:01:26 10° NW visible
25 Nov ? 05:28:09 10° NE 05:31:01 14° E 05:33:51 10° ESE visible
25 Nov ? 18:30:23 10° SSW 18:35:26 41° W 18:40:32 10° NNW visible
26 Nov ? 06:45:01 10° NNE 06:50:24 69° ESE 06:55:43 10° S visible
26 Nov ? 18:08:45 10° S 18:14:05 63° WSW 18:19:26 10° NNW visible
27 Nov ? 06:23:53 10° NNE 06:29:02 45° E 06:34:07 10° S visible
27 Nov ? 17:47:23 10° SSE 17:52:46 86° ENE 17:58:11 10° NNW visible
27 Nov ? 19:31:03 10° WSW 19:33:30 13° W 19:35:59 10° WNW visible
28 Nov ? 06:02:56 10° NE 06:07:36 30° E 06:12:14 10° SSE visible
28 Nov ? 17:26:17 10° SSE 17:31:32 58° ENE 17:36:49 10° N visible
28 Nov ? 19:08:01 10° SW 19:11:57 20° W 19:15:54 10° NW visible
29 Nov ? 05:42:17 10° NE 05:46:07 20° E 05:49:55 10° SE visible
29 Nov ? 18:45:45 10° SSW 18:50:27 31° W 18:55:12 10° NNW visible
30 Nov ? 05:22:19 10° ENE 05:24:33 12° E 05:26:45 10° ESE visible
30 Nov ? 06:59:55 10° NNE 07:05:19 89° W 07:10:39 10° SSW visible
30 Nov ? 18:23:53 10° S 18:29:02 47° W 18:34:13 10° NNW visible
01 Dec ? 06:38:41 10° NNE 06:44:00 61° E 06:49:15 10° S visible
01 Dec ? 18:02:19 10° S 18:07:41 72° WSW 18:13:05 10° NNW visible
